Regional Weather Roundup
Issued by NWS Kansas City/Pleasant Hill, MO

Home | Current Version | Previous Version | Graphics & Text | Print | Product List | Glossary Off
Versions: 1 2 3 4 5 6 7 8 9 10 11 12 13 14 15 16 17 18 19 20 21 22 23 24 25 26 27 28 29 30 31 32 33 34 35 36 37 38 39 40 41 42 43 44 45 46 47 48 49 50

000
ASUS43 KEAX 270910
RWREAX

WEATHER ROUNDUP FOR EASTERN KANSAS AND NORTHWEST MISSOURI
NATIONAL WEATHER SERVICE KANSAS CITY/PLEASANT HILL MO
400 AM CDT WED MAY 27 2015

KSZ040-057-103>105-MOZ028-029-037-043-271000-
...KANSAS CITY METROPOLITAN AREA...

CITY           SKY/WX    TMP DP  RH WIND       PRES   REMARKS
K.C. INTL      MOCLDY    59  55  87 SW5       29.98R
K.C. DOWNTOWN  PTCLDY    61  55  81 S7        29.99R
LEES SUMMIT    CLEAR     62  58  86 W6        30.00R
OLATHE - IXD   CLEAR     61  58  90 SW5       30.01R
OLATHE - OJC   CLEAR     62  59  90 W3        30.00R
LAWRENCE       MOCLDY    58  56  93 CALM      30.00R

$$

MOZ001>008-011>017-020>025-030>033-038>040-044>046-053-054-271000-
...NORTHERN AND CENTRAL MISSOURI...

CITY           SKY/WX    TMP DP  RH WIND       PRES   REMARKS
ST. JOSEPH     CLEAR     59  54  83 CALM      29.98R
MOSBY          PTSUNNY   59  59 100 CALM      29.99R
WARRENSBURG    CLEAR     63  61  94 W7        29.98R
WHITEMAN AFB   PTCLDY    65  62  90 W7        29.97R
CLINTON        MOCLDY    64  64 100 S6        30.00R
SEDALIA        PTCLDY    67  62  84 SW9       29.99R
WARSAW         NOT AVBL
CHILLICOTHE      N/A     60  58  92 CALM      29.97R
KIRKSVILLE     MOCLDY    62  60  93 SW5       29.95R

$$

MOZ041-047>049-056>058-063>065-088>090-097-271000-
...EASTERN AND SOUTHERN MISSOURI...

CITY           SKY/WX    TMP DP  RH WIND       PRES   REMARKS
ST. LOUIS INTL MOCLDY    71  61  70 SW13      29.99R
SPIRIT OF STL  PTCLDY   N/A N/A N/A SW3       29.98R
COLUMBIA       MOCLDY    63  61  93 S8        29.98R
JEFFERSON CITY MOCLDY    67  61  81 SW6       29.99R
ROLLA          CLOUDY    65  63  93 SW13      30.03R
SPRINGFIELD    TSTM      66  61  84 S13       30.01R
BRANSON        CLOUDY    68  64  88 CALM      30.02S
JOPLIN         CLOUDY    65  62  90 S7        30.01R
WEST PLAINS    CLOUDY    67  63  87 S7        30.02F

$$

IAZ060-094-KSZ022-034>040-054-083-096-NEZ052-066-093-271000-
...KANSAS...SOUTHEAST NEBRASKA AND IOWA...

CITY           SKY/WX    TMP DP  RH WIND       PRES   REMARKS
TOPEKA         PTCLDY    61  57  87 W3        30.00R
MANHATTAN      CLEAR     54  54 100 SW3       30.02R
EMPORIA        PTCLDY    60  57  89 W5        30.02R
CHANUTE        PTCLDY    63  62  97 N9        30.01R
WICHITA        MOCLDY    64  61  90 CALM      30.01R
OMAHA          CLEAR     54  53  97 SE5       29.97R
LINCOLN        CLEAR     58  50  75 W3        30.00R
FALLS CITY     CLEAR     56  53  90 NW7       29.98R
LAMONI         CLEAR     60  55  83 W9        29.95R
DES MOINES     CLOUDY    60  56  86 W7        29.92R

$$



USA.gov is the U.S. government's official web portal to all federal, state and local government web resources and services.